Flag for Philippines Weather past 2 weeks in Olongapo, Philippines

Now
79 °F

Passing clouds.


Feels Like: 82 °F
Forecast: 72 / 93 °F
Wind: 1 mph from North

Location: Subic Bay Weather Station

Current Time: Mar 4, 2015 at 9:22:09 PM

Latest Report: Mar 4, 2015 at 9:00 PM


Visibility: N/A

Pressure: 29.92 "Hg

Humidity: 79%

Dew point: 72 °F

Location of OlongapoLocation

Historic Weather in Olongapo — Graph

°F

Olongapo temperature yesterday

Maximum temperature yesterday: 91 °F (at 2:00 PM)
Minimum temperature yesterday: 70 °F (at 5:00 AM)
Average temperature yesterday: 81 °F

Past Weeks' High & Low Weather Summary

 TemperatureHumidityPressure
High91 °F (Feb 26, 3:00 PM)100% (Feb 27, 7:00 AM)30.01 "Hg (Feb 27, 7:00 AM)
Low68 °F (Feb 23, 7:00 AM)30% (Mar 2, 4:00 PM)29.77 "Hg (Mar 2, 3:00 PM)
Average80 °F61%29.90 "Hg
* Reported Feb 17 8:00 PM — Mar 4 8:00 PM, Olongapo, Weather by CustomWeather, © 2015

Note: Actual official high and low records may vary slightly from our data, if they occured in-between our weather recording intervals... More about our weather records

Advertising

Olongapo weather history for previous 24 hours

 ConditionsComfort  
Time TempWeatherWind HumidityBarometerVisibility
8:00 PM
Wed, Mar 4
81 °FPassing clouds.1 mph70%29.89 "HgN/A
7:00 PM84 °FPassing clouds.1 mph58%29.86 "HgN/A
6:00 PM84 °FScattered clouds.1 mph58%29.86 "HgN/A
5:00 PM86 °FScattered clouds.2 mph52%29.83 "HgN/A
4:00 PM86 °FPassing clouds.No wind52%29.83 "HgN/A
3:00 PM86 °FPassing clouds.9 mph59%29.83 "HgN/A
2:00 PM86 °FPassing clouds.10 mph59%29.86 "HgN/A
1:00 PM86 °FPassing clouds.13 mph59%29.89 "HgN/A
12:00 PM91 °FPassing clouds.9 mph36%29.89 "HgN/A
11:00 AM90 °FPassing clouds.3 mph41%29.92 "HgN/A
10:00 AM86 °FPassing clouds.8 mph49%29.95 "HgN/A
9:00 AM82 °FPassing clouds.2 mph58%29.92 "HgN/A
8:00 AM77 °FPassing clouds.5 mph74%29.92 "HgN/A
7:00 AM72 °FScattered clouds.5 mph88%29.89 "HgN/A
6:00 AM73 °FPassing clouds.8 mph83%29.86 "HgN/A
5:00 AM72 °FPassing clouds.6 mph83%29.83 "HgN/A
3:00 AM73 °FPassing clouds.7 mph74%29.83 "HgN/A
2:00 AM73 °FPassing clouds.No wind69%29.86 "HgN/A
12:00 AM73 °FPassing clouds.No wind69%29.86 "HgN/A
11:00 PM
Tue, Mar 3
75 °FPassing clouds.1 mph69%29.86 "HgN/A
10:00 PM75 °FPassing clouds.1 mph65%29.86 "HgN/A
9:00 PM79 °FPassing clouds.No wind65%29.86 "HgN/A
Weather by CustomWeather, © 2015

See weather overviewHow to use our weather pages